Flag for Canada Weather past 2 weeks in Owen Sound, Ontario, Canada

Now
46 °F

Passing clouds.


Feels Like: 41 °F
Forecast: N/A
Wind: 12 mph from Northwest

Location: Wiarton

Current Time: May 22, 2015 at 7:12:10 PM

Latest Report: May 22, 2015 at 6:00 PM


Visibility: 15 mi

Pressure: 30.26 "Hg

Humidity: 46%

Dew point: 27 °F

Location of Owen SoundLocation

Historic Weather in Owen Sound — Graph

°F

Owen Sound temperature yesterday

Maximum temperature yesterday: 61 °F (at 4:00 PM)
Minimum temperature yesterday: 37 °F (at 6:00 AM)
Average temperature yesterday: 50 °F

Past Weeks' High & Low Weather Summary

 TemperatureHumidityPressure
High81 °F (May 8, 12:00 PM)100% (May 9, 6:00 AM)30.50 "Hg (May 9, 6:00 AM)
Low32 °F (May 14, 3:00 AM)38% (May 13, 2:00 PM)29.70 "Hg (May 11, 10:00 PM)
Average52 °F79%30.06 "Hg
* Reported May 7 6:00 PM — May 22 6:00 PM, Owen Sound, Weather by CustomWeather, © 2015

Note: Actual official high and low records may vary slightly from our data, if they occured in-between our weather recording intervals... More about our weather records

Advertising

Owen Sound weather history for previous 24 hours

 ConditionsComfort  
Time TempWeatherWind HumidityBarometerVisibility
6:00 PM
Fri, May 22
46 °FPassing clouds.12 mph46%30.26 "Hg15 mi
5:00 PM46 °FPassing clouds.10 mph53%30.24 "Hg15 mi
4:00 PM46 °FPassing clouds.10 mph46%30.23 "Hg15 mi
3:00 PM46 °FPassing clouds.9 mph53%30.21 "Hg15 mi
2:00 PM46 °FPassing clouds.8 mph53%30.20 "Hg15 mi
1:00 PM45 °FPassing clouds.3 mph57%30.18 "Hg15 mi
12:00 PM46 °FPassing clouds.8 mph53%30.16 "Hg15 mi
11:00 AM45 °FPassing clouds.9 mph57%30.16 "Hg15 mi
10:00 AM43 °FSunny.9 mph61%30.14 "Hg15 mi
9:00 AM43 °FScattered clouds.9 mph66%30.11 "Hg15 mi
8:00 AM41 °FPartly sunny.6 mph70%30.09 "Hg15 mi
7:00 AM41 °FPartly sunny.7 mph70%30.06 "Hg15 mi
6:00 AM39 °FPassing clouds.8 mph75%30.03 "Hg15 mi
5:00 AM41 °FPassing clouds.8 mph81%30.00 "Hg15 mi
4:00 AM41 °FClear.9 mph87%29.97 "Hg15 mi
3:00 AM41 °FPassing clouds.No wind81%29.95 "Hg15 mi
2:00 AM41 °FPassing clouds.2 mph76%29.93 "Hg15 mi
1:00 AM43 °FPassing clouds.6 mph71%29.92 "Hg15 mi
12:00 AM45 °FClear.8 mph66%29.90 "Hg15 mi
11:00 PM
Thu, May 21
46 °FClear.9 mph62%29.89 "Hg15 mi
10:00 PM46 °FPassing clouds.9 mph62%29.88 "Hg15 mi
9:00 PM48 °FScattered clouds.7 mph66%29.86 "Hg15 mi
8:00 PM52 °FBroken clouds.13 mph58%29.85 "Hg15 mi
7:00 PM59 °FPartly sunny.15 mph42%29.84 "Hg15 mi
Weather by CustomWeather, © 2015

See weather overviewHow to use our weather pages